Showing default

GSAT 29, 43698

Orbit data source: Space-Track

GSAT 29, 43698 is a payload satellite owned by ISRO (IN) in GEO that was launched on Wed, 14 Nov 2018 UTC via a GSLV MK III launch vehicle from the Sirharikota (SRI). Payload-class satellites include a variety of spacecraft equipped with specific instruments for various scientific and technological missions. These include communications satellites like Starlink; space stations such as the ISS; scientific satellites like the Hubble; Earth observation satellites from companies like Planet Labs, Umbra, and HawkEye 360; GPS; miniature CubeSats for education and research; and military/defense satellites.

Not visible in the next 10 days
Identifier
43698, 2018-089A
Orbit
GEO
Country
Flag of ININ / IND
Related business
Manufacturer
ISRO SAC/Banga
Mission
Operational Civil Communications
Bus & Motor
I3K, ISRO LAM
Mass
3,423 kg wet, ~1,500 kg dry
Launch date (UTC)
2018-11-14 (7 years ago)
Launch vehicle
GSLV MK III
Launch site
Sirharikota (SRI)
Object type
Payload
Rocket body
Debris
Shape & HBR
Box + 2 Pan, 10.0 m
Radar Cross Section
16.006 m², Large (>1 m²)

Expand to show TLE details & history
Last TLE update: 7 hours ago

TLE from 7 hours ago
0 GSAT 29
1 43698U 18089A   26125.17405970  .00000092  00000-0  00000-0 0  9996
2 43698   0.0529 257.5028 0004095 139.0739 304.2503  1.00275161 27354
Epoch: 2026-05-05T04:10Z
TLE epoch observation values (Epoch: 2026-05-05T04:10:38.758Z)
Latitude
0.07266°
Longitude
55.06699°
Altitude
35,775.4 km
Speed
3.075 km/s
True Right ascension
22h 43m 07s
True Declination
0° 04' 21"
Sunlit
Object was in daylight at epoch
Visualization orbit readout
Latitude
Unknown
Longitude
Unknown
Altitude
Unknown
Speed
Unknown
Apparent Right ascension
Unknown
Apparent Declination
Unknown
Sunlit
N/A
Visualization observer readout
Local Sidereal Time
19:16:17
Azimuth
Unknown
Elevation
Unknown
Doppler factor
Unknown
Orbital elements
Apogee altitude
35,803.985 km
Perigee altitude
35,769.452 km
Semi-major axis
42,164.856 km
Eccentricity
0.00041
Inclination
0.0529°
RAAN
257.5028°
Arg. of periapsis
139.0739°
True anomaly
304.2115°
Mean anomaly
304.2503°
Eccentric anomaly
304.2309°
Mean motion
0.25068 °/min
Orbital period
1,436.1 mins
BSTAR
0
Loading maneuver chart data...
Computing Atmospheric mass density...
Loading historical data...
Loading historical data...
Loading historical data...
Loading historical data...
Loading historical data...
Loading historical data...
Loading historical data...
Other satellites on launch #89 in the year 2018 (2018-11-14 UTC)

Documentation

Showing up to 5 results
|